This is the latest recevied weather packets stored in our database for station/object KK7MLS-13. If no packets are shown the sender has not sent any weather packets the latest 10 day(s).
| Time | Temp. | Humidity | Pressure | Rain* | Wind** | Luminosity | Snow |
|---|---|---|---|---|---|---|---|
| 1777142847 | 19.44° C | 27% | 1011.6 hPa | 0 mm | - | 693 W/m² | - |
| 1777142544 | 20° C | 23% | 1011.6 hPa | 0 mm | - | 688 W/m² | - |
| 1777142242 | 19.44° C | 26% | 1011.7 hPa | 0 mm | - | 683 W/m² | - |
| 1777141940 | 18.33° C | 25% | 1011.8 hPa | 0 mm | - | 678 W/m² | - |
| 1777141637 | 18.89° C | 27% | 1011.7 hPa | 0 mm | - | 671 W/m² | - |
| 1777141335 | 19.44° C | 29% | 1012 hPa | 0 mm | - | 662 W/m² | - |
| 1777141032 | 18.89° C | 33% | 1012 hPa | 0 mm | - | 656 W/m² | - |
| 1777140729 | 18.33° C | 32% | 1012 hPa | 0 mm | - | 653 W/m² | - |
| 1777140425 | 18.33° C | 31% | 1012 hPa | 0 mm | - | 642 W/m² | - |
| 1777140123 | 18.89° C | 27% | 1011.9 hPa | 0 mm | - | 634 W/m² | - |
| 1777139821 | 17.78° C | 33% | 1011.9 hPa | 0 mm | - | 623 W/m² | - |
| 1777139517 | 17.22° C | 37% | 1012 hPa | 0 mm | - | 616 W/m² | - |
| 1777139210 | 16.67° C | 33% | 1012.1 hPa | 0 mm | - | 609 W/m² | - |
| 1777138908 | 16.67° C | 35% | 1012 hPa | 0 mm | - | 597 W/m² | - |
| 1777138604 | 17.22° C | 35% | 1012.2 hPa | 0 mm | - | 587 W/m² | - |
| 1777138300 | 17.22° C | 36% | 1012.2 hPa | 0 mm | - | 576 W/m² | - |
| 1777137997 | 17.22° C | 35% | 1012.2 hPa | 0 mm | - | 569 W/m² | - |
| 1777137692 | 16.11° C | 35% | 1012.1 hPa | 0 mm | - | 557 W/m² | - |
| 1777137389 | 15.56° C | 40% | 1012.4 hPa | 0 mm | - | 547 W/m² | - |
| 1777137086 | 15.56° C | 41% | 1012.4 hPa | 0 mm | - | 533 W/m² | - |
| 1777136783 | 15° C | 41% | 1012.4 hPa | 0 mm | - | 520 W/m² | - |
| 1777136480 | 14.44° C | 42% | 1012.4 hPa | 0 mm | - | 510 W/m² | - |
| 1777136178 | 14.44° C | 40% | 1012.3 hPa | 0 mm | - | 497 W/m² | - |
| 1777135874 | 14.44° C | 41% | 1012.4 hPa | 0 mm | - | 486 W/m² | - |
| 1777135569 | 15° C | 41% | 1012.4 hPa | 0 mm | - | 50 W/m² | - |
* Rain latest hour (hover to see other rain measurements)
** Current wind speed in m/s (hover to see current wind gust speed)